Location: Nairn
(57.5833°N, 3.8667°W)
Time: 23:36:29
(UTC+00:00)

Vanguard 2 - Pass Details

Date: 20 January 2022
Orbit: 552 x 2935 km, 32.9° (Epoch: 25 May)

Event Time Altitude Azimuth Distance (km) Brightness Sun altitude
Exits shadow 04:22:05 12° 199° (SSW) 5,457 11.5 -33.4°
Drops below altitude 10° 04:24:27 10° 191° (S) 5,593 11.6 -33.1°
Sets 04:31:32 0° 171° (S) 6,291 12.1 -32.2°
